Location: Harrison
(47.4490°N, 116.7734°W)
Time: 14:01:49
(UTC+00:00)

Tiangong - Visible Passes

Search period start: 22 July 2024 00:00
Search period end: 01 August 2024 00:00
Orbit: 377 x 383 km, 41.5° (Epoch: 22 July)

Date Brightness Start Highest point End Pass type
(mag) Time Alt. Az. Time Alt. Az. Time Alt. Az.
22 Jul -0.3 10:47:55 15° S 10:47:55 15° S 10:49:18 10° SSE visible
26 Jul 0.3 04:18:10 10° SSE 04:18:49 10° SSE 04:19:28 10° SE visible
27 Jul -0.5 05:15:15 10° SW 05:17:39 23° S 05:17:39 23° S visible
28 Jul -0.5 04:40:26 10° SW 04:43:26 23° SSE 04:45:01 18° SE visible
28 Jul 0.6 06:18:16 10° WSW 06:18:55 14° WSW 06:18:55 14° WSW visible
29 Jul -0.4 04:08:34 10° SW 04:11:35 23° SSE 04:14:37 10° ESE visible
29 Jul -0.5 05:46:33 10° WSW 05:48:58 28° SSW 05:48:58 28° SSW visible
30 Jul -0.9 05:17:31 10° WSW 05:20:59 33° S 05:21:26 32° SSE visible
31 Jul -0.8 04:51:00 10° WSW 04:54:31 34° S 04:56:08 23° SE visible
31 Jul 0.9 06:30:07 10° WSW 06:30:32 12° WSW 06:30:32 12° WSW visible
